Roosevelt Roads, PR

12:28 PM AST on June 21, 2018 (GMT -0400)
Roosevelt Roads Ns

Weather History for TJNR - August, 2017

Change the Weather History Date:

Sunday, August 13, 2017

  Actual Average Record
Temperature  
Mean Temperature 85 °F -  
Max Temperature 89 °F 86 °F 93 °F (2002)
Min Temperature 81 °F 73 °F 46 °F (1997)
Cooling Degree Days 20    
Growing Degree Days 35 (Base 50)    
Moisture  
Dew Point 77 °F    
Average Humidity 79    
Maximum Humidity 88    
Minimum Humidity 67    
Precipitation  
Precipitation 0.00 in - - ()
Sea Level Pressure  
Sea Level Pressure 30.04 in    
Wind  
Wind Speed 7 mph (ENE)    
Max Wind Speed 14 mph    
Max Gust Speed -    
Visibility 10 miles    
Events      
Averages and records for this station are not official NWS values.
T = Trace of Precipitation, MM = Missing Value Source: NWS Daily Summary

Daily Weather History Graph

Daily Weather History Graph

Search for Another Location

Airport or City:

Astronomy

Aug. 13, 2017 Rise Set
Actual Time 6:04 AM AST 6:50 PM AST
Civil Twilight 5:41 AM AST 7:13 PM AST
Nautical Twilight 5:14 AM AST 7:39 PM AST
Astronomical Twilight 4:47 AM AST 8:06 PM AST
Moon 11:14 PM AST (8/13) 11:11 AM AST (8/13)
Length of Visible Light 13h 31m
Length of Day
12h 46m
Waning Gibbous, 65% of the Moon is Illuminated
Aug 13
Waning Gibbous
Aug 14
Last Quarter
Aug 21
New
Aug 29
First Quarter
Sep 6
Full

Hourly Weather History & Observations

Time (AST) Temp. Heat Index Dew Point Humidity Pressure Visibility Wind Dir Wind Speed Gust Speed Precip Events Conditions
12:40 AM 82.0 °F 91.0 °F 78.1 °F 88% 30.04 in 10.0 mi East 5.8 mph - N/A   Mostly Cloudy
12:53 AM 82.9 °F 92.8 °F 78.1 °F 85% 30.04 in 10.0 mi East 6.9 mph - N/A   Scattered Clouds
1:53 AM 82.0 °F 91.0 °F 78.1 °F 88% 30.04 in 10.0 mi ENE 5.8 mph - N/A   Partly Cloudy
2:53 AM 82.0 °F 90.2 °F 77.0 °F 85% 30.02 in 10.0 mi ENE 5.8 mph - N/A   Partly Cloudy
3:53 AM 82.0 °F 90.2 °F 77.0 °F 85% 30.02 in 10.0 mi ENE 6.9 mph - N/A   Mostly Cloudy
4:24 AM 82.0 °F 89.4 °F 75.9 °F 82% 30.02 in 10.0 mi East 6.9 mph - N/A   Partly Cloudy
4:53 AM 82.0 °F 89.4 °F 75.9 °F 82% 30.03 in 10.0 mi ENE 5.8 mph - N/A   Partly Cloudy
5:53 AM 81.0 °F 87.3 °F 75.9 °F 85% 30.04 in 10.0 mi ENE 3.5 mph - N/A   Scattered Clouds
6:53 AM 82.9 °F 90.8 °F 75.9 °F 79% 30.05 in 10.0 mi ENE 5.8 mph - N/A   Scattered Clouds
7:53 AM 84.9 °F 95.3 °F 77.0 °F 77% 30.06 in 10.0 mi ENE 6.9 mph - N/A   Partly Cloudy
8:53 AM 86.0 °F 96.0 °F 75.9 °F 72% 30.08 in 10.0 mi ENE 9.2 mph - N/A   Clear
9:53 AM 87.1 °F 99.8 °F 78.1 °F 74% 30.09 in 10.0 mi ENE 9.2 mph - N/A   Scattered Clouds
10:53 AM 88.0 °F 101.3 °F 78.1 °F 72% 30.08 in 10.0 mi ENE 12.7 mph - 0.00 in   Clear
11:53 AM 88.0 °F 101.3 °F 78.1 °F 72% 30.07 in 10.0 mi ENE 13.8 mph - N/A   Partly Cloudy
12:53 PM 89.1 °F 103.2 °F 78.1 °F 70% 30.06 in 10.0 mi ENE 9.2 mph - N/A   Partly Cloudy
1:53 PM 89.1 °F 103.2 °F 78.1 °F 70% 30.04 in 10.0 mi NE 10.4 mph - N/A   Partly Cloudy
2:53 PM 88.0 °F 101.3 °F 78.1 °F 72% 30.02 in 10.0 mi ENE 10.4 mph - N/A   Clear
3:53 PM 88.0 °F 98.5 °F 75.9 °F 67% 30.00 in 10.0 mi East 9.2 mph - N/A   Clear
4:53 PM 87.1 °F 99.8 °F 78.1 °F 74% 30.01 in 10.0 mi East 9.2 mph - N/A   Scattered Clouds
5:53 PM 84.0 °F 94.8 °F 78.1 °F 82% 30.01 in 10.0 mi ENE 8.1 mph - N/A   Scattered Clouds
6:23 PM 84.0 °F 93.7 °F 77.0 °F 79% 30.01 in 10.0 mi East 8.1 mph - N/A   Mostly Cloudy
6:39 PM 84.0 °F 93.7 °F 77.0 °F 79% 30.02 in 10.0 mi East 9.2 mph - N/A   Scattered Clouds
6:53 PM 84.0 °F 93.7 °F 77.0 °F 79% 30.02 in 10.0 mi East 6.9 mph - N/A   Scattered Clouds
7:53 PM 82.9 °F 91.8 °F 77.0 °F 82% 30.03 in 10.0 mi ENE 8.1 mph - N/A   Partly Cloudy
8:53 PM 82.9 °F 90.8 °F 75.9 °F 79% 30.05 in 10.0 mi ENE 9.2 mph - N/A   Clear
9:53 PM 82.9 °F 91.8 °F 77.0 °F 82% 30.06 in 10.0 mi ENE 6.9 mph - N/A   Partly Cloudy
10:53 PM 82.9 °F 90.8 °F 75.9 °F 79% 30.07 in 10.0 mi East 5.8 mph - N/A   Partly Cloudy
11:53 PM 82.9 °F 91.8 °F 77.0 °F 82% 30.06 in 10.0 mi ENE 6.9 mph - N/A   Clear